PVL921 CYYT-CYQX

Flight info

Callsign PVL921
Flight time 0h 34m
Altitude 16000
Route LEVAD
Aircraft DH8D/M-SDE2E3FGRY/H

Departure

Time 2026-04-19 22:32
Airport St. John's International Airport (CYYT)

Arrival

Time 2026-04-19 23:06
Airport Gander International Airport (CYQX)
Time Latitude Longitude Altitude Speed Heading
2026-04-19 22:04 47.61231 -52.74071 443 ft 0 kts 266°
2026-04-19 22:22 47.61231 -52.74066 443 ft 3 kts 266°
2026-04-19 22:22 47.61233 -52.74034 442 ft 0 kts 265°
2026-04-19 22:23 47.61235 -52.74004 440 ft 3 kts 264°
2026-04-19 22:23 47.61237 -52.73980 439 ft 3 kts 262°
2026-04-19 22:23 47.61238 -52.73975 439 ft 0 kts 262°
2026-04-19 22:26 47.61237 -52.73975 439 ft 0 kts 262°
2026-04-19 22:26 47.61237 -52.73982 439 ft 0 kts 274°
2026-04-19 22:26 47.61251 -52.73984 439 ft 6 kts 24°
2026-04-19 22:26 47.61269 -52.73911 435 ft 7 kts 109°
2026-04-19 22:27 47.61278 -52.73834 432 ft 11 kts 23°
2026-04-19 22:27 47.61364 -52.73835 429 ft 13 kts 355°
2026-04-19 22:27 47.61460 -52.73844 427 ft 15 kts 356°
2026-04-19 22:27 47.61568 -52.73855 426 ft 18 kts 355°
2026-04-19 22:28 47.61703 -52.73867 424 ft 20 kts 355°
2026-04-19 22:28 47.61814 -52.73879 424 ft 14 kts 356°
2026-04-19 22:28 47.61916 -52.73889 423 ft 14 kts 355°
2026-04-19 22:28 47.62008 -52.73898 422 ft 10 kts 356°
2026-04-19 22:29 47.62098 -52.73906 421 ft 15 kts 355°
2026-04-19 22:29 47.62210 -52.73917 420 ft 15 kts 356°
2026-04-19 22:29 47.62280 -52.73924 419 ft 7 kts 356°
2026-04-19 22:29 47.62309 -52.73927 419 ft 0 kts 355°
2026-04-19 22:30 47.62312 -52.73927 419 ft 2 kts 355°
2026-04-19 22:30 47.62343 -52.73930 418 ft 7 kts 356°
2026-04-19 22:30 47.62404 -52.73936 417 ft 8 kts 356°
2026-04-19 22:30 47.62471 -52.73941 416 ft 9 kts 357°
2026-04-19 22:31 47.62512 -52.73978 416 ft 6 kts 283°
2026-04-19 22:31 47.62505 -52.74175 420 ft 43 kts 266°
2026-04-19 22:31 47.62465 -52.75036 449 ft 117 kts 265°
2026-04-19 22:31 47.62436 -52.76364 772 ft 134 kts 265°
2026-04-19 22:32 47.62492 -52.77758 1328 ft 141 kts 268°
2026-04-19 22:32 47.62607 -52.79192 1942 ft 145 kts 267°
2026-04-19 22:32 47.62720 -52.80669 2557 ft 146 kts 267°
2026-04-19 22:32 47.62829 -52.82177 3132 ft 150 kts 267°
2026-04-19 22:33 47.62928 -52.83704 3723 ft 153 kts 268°
2026-04-19 22:33 47.63015 -52.85265 4238 ft 154 kts 267°
2026-04-19 22:33 47.63144 -52.86829 4745 ft 159 kts 280°
2026-04-19 22:33 47.63847 -52.88177 5151 ft 178 kts 314°
2026-04-19 22:34 47.64846 -52.89262 5661 ft 179 kts 316°
2026-04-19 22:34 47.65855 -52.90346 6139 ft 181 kts 316°
2026-04-19 22:34 47.66869 -52.91438 6646 ft 184 kts 316°
2026-04-19 22:34 47.67898 -52.92550 7170 ft 183 kts 316°
2026-04-19 22:35 47.68937 -52.93675 7664 ft 185 kts 316°
2026-04-19 22:35 47.69968 -52.94793 8165 ft 186 kts 316°
2026-04-19 22:35 47.71013 -52.95930 8647 ft 187 kts 316°
2026-04-19 22:35 47.72083 -52.97100 9050 ft 197 kts 316°
2026-04-19 22:36 47.73181 -52.98304 9551 ft 199 kts 316°
2026-04-19 22:36 47.74292 -52.99520 10034 ft 202 kts 317°
2026-04-19 22:36 47.75425 -53.00756 10564 ft 203 kts 317°
2026-04-19 22:36 47.76569 -53.01989 11086 ft 205 kts 319°
2026-04-19 22:37 47.77766 -53.03167 11569 ft 211 kts 320°
2026-04-19 22:37 47.79067 -53.04440 11678 ft 235 kts 321°
2026-04-19 22:37 47.80452 -53.05794 12107 ft 241 kts 321°
2026-04-19 22:37 47.81849 -53.07158 12594 ft 245 kts 321°
2026-04-19 22:38 47.83293 -53.08570 13084 ft 249 kts 321°
2026-04-19 22:38 47.84728 -53.09976 13561 ft 251 kts 321°
2026-04-19 22:38 47.86179 -53.11400 14057 ft 253 kts 321°
2026-04-19 22:38 47.87662 -53.12857 14503 ft 255 kts 321°
2026-04-19 22:39 47.89139 -53.14310 14966 ft 256 kts 321°
2026-04-19 22:39 47.90615 -53.15764 15393 ft 259 kts 321°
2026-04-19 22:39 47.92129 -53.17258 15770 ft 263 kts 321°
2026-04-19 22:39 47.93670 -53.18783 15897 ft 268 kts 321°
2026-04-19 22:40 47.95237 -53.20336 15944 ft 271 kts 321°
2026-04-19 22:40 47.96815 -53.21904 15953 ft 273 kts 321°
2026-04-19 22:40 47.98384 -53.23463 15954 ft 275 kts 321°
2026-04-19 22:40 48.00000 -53.25066 15954 ft 277 kts 321°
2026-04-19 22:41 48.01613 -53.26669 15955 ft 280 kts 321°
2026-04-19 22:41 48.03234 -53.28279 15952 ft 282 kts 321°
2026-04-19 22:41 48.04865 -53.29898 15953 ft 283 kts 321°
2026-04-19 22:41 48.06499 -53.31522 15954 ft 285 kts 321°
2026-04-19 22:42 48.08161 -53.33175 15954 ft 287 kts 321°
2026-04-19 22:42 48.09820 -53.34826 15953 ft 288 kts 321°
2026-04-19 22:42 48.11509 -53.36507 15950 ft 290 kts 321°
2026-04-19 22:42 48.13171 -53.38163 15950 ft 290 kts 321°
2026-04-19 22:43 48.14855 -53.39841 15951 ft 291 kts 321°
2026-04-19 22:43 48.16545 -53.41527 15951 ft 292 kts 321°
2026-04-19 22:43 48.18216 -53.43196 15951 ft 292 kts 321°
2026-04-19 22:43 48.19913 -53.44891 15948 ft 292 kts 321°
2026-04-19 22:44 48.21612 -53.46590 15948 ft 293 kts 321°
2026-04-19 22:44 48.23292 -53.48272 15944 ft 293 kts 321°
2026-04-19 22:44 48.24982 -53.49965 15939 ft 293 kts 321°
2026-04-19 22:44 48.26682 -53.51669 15936 ft 294 kts 321°
2026-04-19 22:45 48.28376 -53.53369 15937 ft 294 kts 321°
2026-04-19 22:45 48.30085 -53.55085 15935 ft 294 kts 321°
2026-04-19 22:45 48.31770 -53.56779 15931 ft 294 kts 321°
2026-04-19 22:45 48.33487 -53.58506 15932 ft 295 kts 321°
2026-04-19 22:46 48.35169 -53.60199 15932 ft 295 kts 321°
2026-04-19 22:46 48.36893 -53.61935 15932 ft 295 kts 321°
2026-04-19 22:46 48.38586 -53.63643 15929 ft 295 kts 321°
2026-04-19 22:46 48.40287 -53.65358 15927 ft 295 kts 320°
2026-04-19 22:47 48.41986 -53.67075 15927 ft 295 kts 320°
2026-04-19 22:47 48.43698 -53.68806 15927 ft 296 kts 320°
2026-04-19 22:47 48.45401 -53.70528 15930 ft 296 kts 320°
2026-04-19 22:47 48.47102 -53.72250 15930 ft 296 kts 321°
2026-04-19 22:48 48.48799 -53.73970 15927 ft 296 kts 320°
2026-04-19 22:48 48.50524 -53.75720 15925 ft 296 kts 321°
2026-04-19 22:48 48.52220 -53.77441 15924 ft 296 kts 320°
2026-04-19 22:48 48.53928 -53.79176 15928 ft 296 kts 321°
2026-04-19 22:49 48.55623 -53.80899 15954 ft 294 kts 320°
2026-04-19 22:49 48.57331 -53.82635 16011 ft 293 kts 320°
2026-04-19 22:49 48.58991 -53.84324 16011 ft 291 kts 320°
2026-04-19 22:49 48.60682 -53.86050 15655 ft 290 kts 320°
2026-04-19 22:50 48.62329 -53.87735 15271 ft 287 kts 320°
2026-04-19 22:50 48.63956 -53.89399 14881 ft 284 kts 320°
2026-04-19 22:50 48.65586 -53.91069 14403 ft 281 kts 320°
2026-04-19 22:50 48.67183 -53.92707 13921 ft 278 kts 320°
2026-04-19 22:51 48.68765 -53.94329 13432 ft 275 kts 320°
2026-04-19 22:51 48.71899 -53.97543 12441 ft 270 kts 320°
2026-04-19 22:51 48.73439 -53.99124 11944 ft 267 kts 320°
2026-04-19 22:52 48.74958 -54.00684 11535 ft 261 kts 319°
2026-04-19 22:52 48.76467 -54.02230 11336 ft 265 kts 320°
2026-04-19 22:52 48.77987 -54.03786 11264 ft 265 kts 320°
2026-04-19 22:52 48.79535 -54.05380 11006 ft 273 kts 320°
2026-04-19 22:53 48.81121 -54.07013 10722 ft 277 kts 320°
2026-04-19 22:53 48.82689 -54.08628 10413 ft 271 kts 320°
2026-04-19 22:53 48.84239 -54.10224 10100 ft 266 kts 319°
2026-04-19 22:53 48.85734 -54.11765 9805 ft 261 kts 320°
2026-04-19 22:54 48.87231 -54.13310 9504 ft 261 kts 319°
2026-04-19 22:54 48.88730 -54.14856 9199 ft 259 kts 319°
2026-04-19 22:54 48.90212 -54.16389 8899 ft 257 kts 319°
2026-04-19 22:54 48.91671 -54.17899 8598 ft 255 kts 319°
2026-04-19 22:55 48.93138 -54.19418 8299 ft 252 kts 319°
2026-04-19 22:55 48.94570 -54.20902 8040 ft 248 kts 319°
2026-04-19 22:55 48.95984 -54.22366 7785 ft 244 kts 319°
2026-04-19 22:55 48.97371 -54.23804 7524 ft 241 kts 318°
2026-04-19 22:56 48.98740 -54.25226 7266 ft 238 kts 318°
2026-04-19 22:56 49.00098 -54.26636 7010 ft 234 kts 318°
2026-04-19 22:56 49.01443 -54.28036 6786 ft 237 kts 318°
2026-04-19 22:56 49.02803 -54.29450 6589 ft 241 kts 318°
2026-04-19 22:57 49.04195 -54.30900 6398 ft 244 kts 317°
2026-04-19 22:57 49.05586 -54.32352 6155 ft 241 kts 317°
2026-04-19 22:57 49.06965 -54.33788 5890 ft 235 kts 317°
2026-04-19 22:57 49.08288 -54.35171 5628 ft 231 kts 317°
2026-04-19 22:58 49.09603 -54.36542 5362 ft 226 kts 316°
2026-04-19 22:58 49.10837 -54.37953 5077 ft 214 kts 304°
2026-04-19 22:58 49.11435 -54.39823 4809 ft 185 kts 273°
2026-04-19 22:58 49.11689 -54.41664 4639 ft 176 kts 272°
2026-04-19 22:59 49.11926 -54.43454 4485 ft 168 kts 270°
2026-04-19 22:59 49.12149 -54.45165 4303 ft 162 kts 270°
2026-04-19 22:59 49.12361 -54.46824 4137 ft 156 kts 270°
2026-04-19 22:59 49.12565 -54.48401 4040 ft 148 kts 268°
2026-04-19 23:00 49.12471 -54.49871 3830 ft 131 kts 226°
2026-04-19 23:00 49.11750 -54.50504 3731 ft 116 kts 202°
2026-04-19 23:00 49.11002 -54.50872 3635 ft 114 kts 203°
2026-04-19 23:00 49.10229 -54.51231 3479 ft 114 kts 200°
2026-04-19 23:01 49.09474 -54.51541 3331 ft 112 kts 199°
2026-04-19 23:01 49.08708 -54.51833 3177 ft 114 kts 199°
2026-04-19 23:01 49.07966 -54.52095 2974 ft 103 kts 196°
2026-04-19 23:01 49.07299 -54.52311 2926 ft 96 kts 200°
2026-04-19 23:02 49.06593 -54.52595 3021 ft 112 kts 198°
2026-04-19 23:02 49.05806 -54.52850 2751 ft 118 kts 194°
2026-04-19 23:02 49.05030 -54.53061 2548 ft 111 kts 194°
2026-04-19 23:02 49.04299 -54.53271 2365 ft 103 kts 194°
2026-04-19 23:03 49.03610 -54.53466 2217 ft 100 kts 195°
2026-04-19 23:03 49.02925 -54.53672 2072 ft 101 kts 194°
2026-04-19 23:03 49.02238 -54.53875 1940 ft 100 kts 194°
2026-04-19 23:03 49.01556 -54.54076 1797 ft 100 kts 193°
2026-04-19 23:04 49.00875 -54.54279 1668 ft 103 kts 193°
2026-04-19 23:04 49.00158 -54.54490 1521 ft 105 kts 192°
2026-04-19 23:04 48.99425 -54.54703 1374 ft 109 kts 192°
2026-04-19 23:04 48.98666 -54.54923 1225 ft 114 kts 192°
2026-04-19 23:05 48.97877 -54.55156 1076 ft 119 kts 192°
2026-04-19 23:05 48.97038 -54.55405 913 ft 126 kts 191°
2026-04-19 23:05 48.96155 -54.55656 782 ft 128 kts 190°
2026-04-19 23:05 48.95285 -54.55868 603 ft 125 kts 190°
2026-04-19 23:06 48.94448 -54.56105 443 ft 118 kts 190°
2026-04-19 23:06 48.93753 -54.56299 434 ft 78 kts 191°
2026-04-19 23:06 48.93338 -54.56422 426 ft 39 kts 191°
2026-04-19 23:06 48.93257 -54.56517 426 ft 12 kts 278°
2026-04-19 23:07 48.93269 -54.56615 430 ft 6 kts 282°
2026-04-19 23:07 48.93277 -54.56677 433 ft 8 kts 282°
2026-04-19 23:07 48.93309 -54.56757 437 ft 10 kts 348°
2026-04-19 23:07 48.93401 -54.56735 438 ft 15 kts 11°
2026-04-19 23:08 48.93506 -54.56705 439 ft 14 kts 11°
2026-04-19 23:08 48.93597 -54.56679 441 ft 12 kts 11°
2026-04-19 23:08 48.93680 -54.56656 444 ft 11 kts 11°
2026-04-19 23:08 48.93756 -54.56634 446 ft 13 kts 11°
2026-04-19 23:09 48.93863 -54.56603 449 ft 17 kts 11°
2026-04-19 23:09 48.93952 -54.56577 450 ft 11 kts 11°
2026-04-19 23:09 48.94047 -54.56591 454 ft 15 kts 339°
2026-04-19 23:09 48.94149 -54.56668 460 ft 15 kts 334°
2026-04-19 23:10 48.94238 -54.56738 464 ft 13 kts 333°
2026-04-19 23:10 48.94316 -54.56799 467 ft 11 kts 333°
2026-04-19 23:10 48.94385 -54.56853 468 ft 11 kts 333°
2026-04-19 23:10 48.94457 -54.56909 469 ft 11 kts 333°
2026-04-19 23:11 48.94519 -54.56958 470 ft 8 kts 333°
2026-04-19 23:11 48.94555 -54.57027 471 ft 8 kts 276°
2026-04-19 23:11 48.94541 -54.57102 472 ft 6 kts 243°
2026-04-19 23:11 48.94523 -54.57157 474 ft 5 kts 243°
2026-04-19 23:12 48.94508 -54.57218 475 ft 6 kts 263°
2026-04-19 23:12 48.94519 -54.57294 477 ft 8 kts 286°
2026-04-19 23:12 48.94555 -54.57384 478 ft 12 kts 333°
2026-04-19 23:12 48.94601 -54.57419 478 ft 3 kts 333°
2026-04-19 23:13 48.94610 -54.57426 478 ft 0 kts 334°